Regional Weather Roundup
Issued by NWS Upton, NY

Current Version | Previous Version | Text Only | Print | Product List | Glossary On
Versions: 1 2 3 4 5 6 7 8 9 10 11 12 13 14 15 16 17 18 19 20 21 22 23 24 25 26 27 28 29 30 31 32 33 34 35 36 37 38 39 40 41 42 43 44 45 46 47 48 49 50
947
ASUS41 KOKX 090304
RWROKX

REGIONAL WEATHER ROUNDUP
NATIONAL WEATHER SERVICE NEW YORK NY
1000 PM EST MON FEB 08 2016

NOTE: "FAIR" INDICATES FEW OR NO CLOUDS BELOW 12,000 FEET WITH NO
SIGNIFICANT WEATHER AND/OR OBSTRUCTIONS TO VISIBILITY.

NYZ071-072-176-178-NJZ106-104-090400-
NEW YORK CITY METRO AREA


CITY           SKY/WX    TMP DP  RH WIND       PRES   REMARKS
CENTRAL PARK   CLOUDY    28  22  78 NE6       29.82S WCI  22
LAGUARDIA APRT FRZ RAIN  29  23  78 NE8       29.80S WCI  21
KENNEDY INTL   FLURRIES  29  23  78 NE8       29.82S WCI  21
NEWARK/LIBERTY FLURRIES  30  23  75 NE7       29.80F WCI  23
BRNX BOT. GARD   N/A     28  25  86 E3        29.82F
TETERBORO      FLURRIES  29  23  78 NE5       29.80S WCI  24
$$

NYZ177-179-078>081-090400-
LONG ISLAND NEW YORK

CITY           SKY/WX    TMP DP  RH WIND       PRES   REMARKS
FARMINGDALE    CLOUDY    27  23  85 NE5       29.80F WCI  22
ISLIP          FLURRIES  27  22  81 N6        29.78F WCI  20
SHIRLEY        CLOUDY    26  23  88 N5        29.80S WCI  20
RIVERHEAD        N/A     27  21  80 E1        29.78R
WESTHAMPTON      N/A    N/A N/A N/A MISG      29.81R
EAST HAMPTON   CLOUDY    25  19  80 N5        29.78S WCI  19
MONTAUK POINT    N/A     25  18  74 N12G20    29.79S WCI  14
$$

NYZ052-065-067-090400-
HUDSON VALLEY

CITY           SKY/WX    TMP DP  RH WIND       PRES   REMARKS
WHITE PLAINS   LGT SNOW  26  22  84 E5        29.78S FOG     WCI  20
NEWBURGH       LGT SNOW  25  23  93 NE9       29.79R WCI  15
MONTGOMERY     LGT SNOW  27  23  85 NE7       29.78S FOG     WCI  19
POUGHKEEPSIE   LGT SNOW  27  21  78 N5        29.80S WCI  22
ALBANY         LGT SNOW  25  21  85 CALM      29.80F FOG
$$

NJZ001-105-106-008-010-013-015-019>022-104-090400-
NEW JERSEY

CITY           SKY/WX    TMP DP  RH WIND       PRES   REMARKS
NEWARK/LIBERTY FLURRIES  30  23  75 NE7       29.80F WCI  23
TETERBORO      FLURRIES  29  23  78 NE5       29.80S WCI  24
CALDWELL       CLOUDY    29  24  82 E8        29.80S WCI  21
MORRISTOWN     CLOUDY    30  25  80 E8        29.80S WCI  23
SOMERVILLE     CLOUDY    32  24  72 E6        29.75F WCI  26
SUSSEX         CLOUDY    27  22  81 NE8       29.76F WCI  19
ANDOVER          N/A     28  23  81 NE7       29.74F WCI  21
TRENTON        CLOUDY    32  25  75 SE10      29.75F WCI  24
MILLVILLE      LGT SNOW  33  31  92 E6        29.75F FOG     WCI  28
ATLANTIC CITY  LGT SNOW  33  31  92 E8        29.76F FOG     WCI  26
WRIGHTSTOWN    MIX PCPN  31  31  99 E8        29.74F WCI  23
TOMS RIVER     CLOUDY    30  27  86 NE7       29.78F WCI  23
BELMAR         CLOUDY    30  21  69 NE3       29.78F
$$

PAZ047>061-062-071-090400-
EASTERN PENNSYLVANIA

CITY           SKY/WX    TMP DP  RH WIND       PRES   REMARKS
PHILADELPHIA   LGT SNOW  33  27  78 SE9       29.76F WCI  25
ALLENTOWN      CLOUDY    36  22  56 SE6       29.72F WCI  31
SCRANTON       CLOUDY    33  16  49 SE8G18    29.65F WCI  26
$$

CTZ002-004>006-009-010-012-RIZ004-006-007-MAZ004-011-015-090400-
SOUTHERN NEW ENGLAND
 IN CT

CITY           SKY/WX    TMP DP  RH WIND       PRES   REMARKS
BRADLEY INTL   FLURRIES  23  19  85 N8        29.79F WCI  14
HARTFORD       FLURRIES  24  20  84 N6        29.81F WCI  17
DANBURY        LGT SNOW  24  19  81 E5        29.80R WCI  18
WTRBRY/OXFORD  CLOUDY    21  10  63 N6        29.78R WCI  14
BRIDGEPORT     FLURRIES  26  20  77 N8        29.81S WCI  18
MERIDEN        FLURRIES  25  18  74 VRB5      29.81S WCI  19
NEW HAVEN      LGT SNOW  24  20  84 N5        29.81R FOG     WCI  18
CHESTER        MOCLDY    25  21  86 N8        29.78R WCI  16
GROTON         CLOUDY    23  18  81 N13       29.79S WCI  11
WILLIMANTIC    CLOUDY    23  16  74 N7        29.80S WCI  15

 IN RI

CITY           SKY/WX    TMP DP  RH WIND       PRES   REMARKS
PROVIDENCE     LGT SNOW  21  16  81 N14G23    29.79R WCI   8
BLOCK ISLAND   CLOUDY    23  19  86 N14G21    29.75S WCI  11
WESTERLY       CLOUDY    23  16  74 N13       29.78S WCI  11

 IN MA

CITY           SKY/WX    TMP DP  RH WIND       PRES   REMARKS
BOSTON         LGT SNOW  20  16  84 N17G24    29.80S FOG     WCI   5
WORCESTER      LGT SNOW  17  13  84 NE7G18    29.73S VSB 1   WCI   8
WESTFIELD      LGT SNOW  22  19  89 N6        29.80S FOG     WCI  14
PROVINCETOWN   LGT SNOW  29  27  92 N24G31    29.73R FOG     WCI  15
NANTUCKET      LGT SNOW  33  29  85 N22G31    29.68S FOG     WCI  21
$$

ANZ330-335-338-340-345-350-353-355-090400-
COASTAL MARINE OBSERVATIONS


STATION/POSITION TIME  SKY/WX   TEMP    WIND        PRES    VSBY  WAVE
                                AIR SEA DIR/SP/G                  HT/PER
                 (UTC)          (F)     (DEG/KT/KT) (MB)    (MI)  (FT/S)
NY HARB ENTRANCE 0150            30 43   40/ 12/ 14 1008.6         10/12
4S FIRE IS       NOT AVBL
20S FIRE ISLAND  0150            30 45   40/ 12/ 14 1008.7         11/11
GREAT SOUTH BAY  NOT AVBL
23SW MTP         0250            29 47   20/ 16/ 21 1007.6         10/11
HUDSON CANYON    0150            35 51              1007.5         15/14
KINGS POINT      0200            28 38   90/  3/  6 1009.0
EXECUTION ROCKS  NOT AVBL
CENTRAL LI SOUND 0200            27      30/ 12/ 16   N/A           1/ 2
EASTERN LI SOUND 0200            25 42   10/ 16/ 19   N/A
ROBBINS REEF     0200            30      80/ 10/ 12 1008.3
$$


>>>>>>>>>>>>>>>>>>>>>>>>>>>> KEY <<<<<<<<<<<<<<<<<<<<<<<<<<<
>                                                          <
>     SKY/WX - SKY CONDITION/PRESENT WEATHER               <
>     TMP    - TEMPERATURE IN FAHRENHEIT                   <
>     DP     - DEWPOINT IN FAHRENHEIT                      <
>     RH     - RELATIVE HUMIDITY IN PERCENT                <
>     WIND   - DIRECTION AND SPEED IN MPH                  <
>     PRES   - MEAN SEA LEVEL PRESSURE IN INCHES OF HG     <
>     WCI    - WIND CHILL INDEX                            <
>     VSB    - VISIBILITY IN MILES                         <
>     HX     - HEAT INDEX                                  <
>     TC     - TEMPERATURE IN CELSIUS                      <
>     VRB    - VARIABLE WIND DIRECTION                     <
>                                                          <
>>>>>>>>>>>>>>>>>>>>>>>>>>>> KEY <<<<<<<<<<<<<<<<<<<<<<<<<<<






USA.gov is the U.S. government's official web portal to all federal, state and local government web resources and services.